FW7275 Weather Reports


Display with metric or nautical units.
time (UTC)temp
F
wind
direction
speed
MPH
gust
MPH
rain 1hr
in
rain 24hr
in
rain mn
in
humidity
%
barometer
mb
20260903062029 67 0 0.0 0.0 0.00 0.00 0.00 75
20260903061035 61 0 0.0 0.0 0.00 0.00 0.00 81
20260903060036 60 0 0.0 0.0 0.00 0.00 0.00 82
20260903055028 59 0 0.0 0.0 0.00 0.00 0.00 84
20260903054027 57 0 0.0 0.0 0.00 0.00 0.00 85
20260903053035 56 0 0.0 0.0 0.00 0.00 0.00 85
20260903052025 56 0 0.0 0.0 0.00 0.00 0.00 86
20260903050029 55 0 0.0 0.0 0.00 0.00 0.00 85
20260903045029 55 0 0.0 0.0 0.00 0.00 0.00 86
20260903042033 56 0 0.0 0.0 0.00 0.00 0.00 84
20260903041022 56 0 0.0 0.0 0.00 0.00 0.00 84
20260903040030 56 0 0.0 0.0 0.00 0.00 0.00 84
20260903035030 56 0 0.0 0.0 0.00 0.00 0.00 83
20260903034034 56 0 0.0 0.0 0.00 0.00 0.00 82
20260903032030 58 0 0.0 0.0 0.00 0.00 0.00 82
20260903031026 58 0 0.0 0.0 0.00 0.00 0.00 82
20260903030035 58 0 0.0 0.0 0.00 0.00 0.00 82
20260903025029 58 0 0.0 0.0 0.00 0.00 0.00 82
20260903024030 59 0 0.0 0.0 0.00 0.00 0.00 81
20260903023024 59 0 0.0 0.0 0.00 0.00 0.00 80
20260903022029 60 0 0.0 0.0 0.00 0.00 0.00 80
20260903020030 60 0 0.0 0.0 0.00 0.00 0.00 80
20260903015023 60 0 0.0 0.0 0.00 0.00 0.00 80
20260903014022 60 0 0.0 0.0 0.00 0.00 0.00 80
20260903013029 60 0 0.0 0.0 0.00 0.00 0.00 79
20260903012021 60 0 0.0 0.0 0.00 0.00 0.00 79
20260903005030 60 0 0.0 0.0 0.00 0.00 0.00 78
20260903004022 60 0 0.0 0.0 0.00 0.00 0.00 78
20260903003031 60 0 0.0 0.0 0.00 0.00 0.00 78
20260903002026 60 0 0.0 0.0 0.00 0.00 0.00 78
20260903001033 60 0 0.0 0.0 0.00 0.00 0.00 77
20260902234031 61 0 0.0 0.0 0.00 0.00 0.00 77
20260902233033 61 0 0.0 0.0 0.00 0.00 0.00 76
20260902232029 61 0 0.0 0.0 0.00 0.00 0.00 76
20260902225034 62 0 0.0 0.0 0.00 0.00 0.00 75
20260902224032 61 0 0.0 0.0 0.00 0.00 0.00 75
20260902223029 61 0 0.0 0.0 0.00 0.00 0.00 75
20260902222032 61 0 0.0 0.0 0.00 0.00 0.00 76
20260902221034 61 0 0.0 0.0 0.00 0.00 0.00 76
20260902220039 61 0 0.0 0.0 0.00 0.00 0.00 76
20260902215033 61 0 0.0 0.0 0.00 0.00 0.00 75
20260902214024 61 0 0.0 0.0 0.00 0.00 0.00 75
20260902212034 61 0 0.0 0.0 0.00 0.00 0.00 75
20260902211026 62 0 0.0 0.0 0.00 0.00 0.00 75
20260902210036 62 0 0.0 0.0 0.00 0.00 0.00 75
20260902205034 62 0 0.0 0.0 0.00 0.00 0.00 74
20260902204026 63 0 0.0 0.0 0.00 0.00 0.00 75
20260902202029 64 0 0.0 0.0 0.00 0.00 0.00 76
20260902200043 65 0 0.0 0.0 0.00 0.00 0.00 76
20260902195030 65 0 0.0 0.0 0.00 0.00 0.00 76
20260902194027 66 0 0.0 0.0 0.00 0.00 0.00 73
20260902193029 66 0 0.0 0.0 0.00 0.00 0.00 73
20260902192028 66 0 0.0 0.0 0.00 0.00 0.00 73
20260902191024 67 0 0.0 0.0 0.00 0.00 0.00 73
20260902190038 67 0 0.0 0.0 0.00 0.00 0.00 73
20260902185028 68 0 0.0 0.0 0.00 0.00 0.00 70
20260902184026 68 0 0.0 0.0 0.00 0.00 0.00 70
20260902183032 68 0 0.0 0.0 0.00 0.00 0.00 70
20260902181026 70 0 0.0 0.0 0.00 0.00 0.00 66
20260902174029 73 0 0.0 0.0 0.00 0.00 0.00 61
20260902171028 76 0 0.0 0.0 0.00 0.00 0.00 52
20260902170037 77 0 0.0 0.0 0.00 0.00 0.00 52
20260902165024 77 0 0.0 0.0 0.00 0.00 0.00 49
20260902164020 78 0 0.0 0.0 0.00 0.00 0.00 48
20260902163030 78 0 0.0 0.0 0.00 0.00 0.00 48
20260902162032 78 0 0.0 0.0 0.00 0.00 0.00 47
20260902161023 79 0 0.0 0.0 0.00 0.00 0.00 47
20260902160039 79 0 0.0 0.0 0.00 0.00 0.00 46
20260902155026 79 0 0.0 0.0 0.00 0.00 0.00 45
20260902154034 81 0 0.0 0.0 0.00 0.00 0.00 43
20260902152027 81 0 0.0 0.0 0.00 0.00 0.00 43
20260902151028 82 0 0.0 0.0 0.00 0.00 0.00 43
20260902145025 82 0 0.0 0.0 0.00 0.00 0.00 48
20260902143035 81 0 0.0 0.0 0.00 0.00 0.00 48
20260902142033 83 0 0.0 0.0 0.00 0.00 0.00 48
20260902141024 83 0 0.0 0.0 0.00 0.00 0.00 48
20260902140032 83 0 0.0 0.0 0.00 0.00 0.00 48
20260902135021 84 0 0.0 0.0 0.00 0.00 0.00 47
20260902134025 81 0 0.0 0.0 0.00 0.00 0.00 49
20260902132034 81 0 0.0 0.0 0.00 0.00 0.00 50
20260902131024 81 0 0.0 0.0 0.00 0.00 0.00 50
20260902125019 81 0 0.0 0.0 0.00 0.00 0.00 50
20260902124022 80 0 0.0 0.0 0.00 0.00 0.00 51
20260902123033 80 0 0.0 0.0 0.00 0.00 0.00 52
20260902122025 80 0 0.0 0.0 0.00 0.00 0.00 52
20260902121023 77 0 0.0 0.0 0.00 0.00 0.00 54
20260902115028 78 0 0.0 0.0 0.00 0.00 0.00 52
20260902114021 78 0 0.0 0.0 0.00 0.00 0.00 54
20260902113028 78 0 0.0 0.0 0.00 0.00 0.00 54
20260902112023 78 0 0.0 0.0 0.00 0.00 0.00 54
20260902105026 76 0 0.0 0.0 0.00 0.00 0.00 59
20260902104031 76 0 0.0 0.0 0.00 0.00 0.00 59
20260902103033 77 0 0.0 0.0 0.00 0.00 0.00 58
20260902102020 77 0 0.0 0.0 0.00 0.00 0.00 57
20260902101021 77 0 0.0 0.0 0.00 0.00 0.00 57
20260902100037 77 0 0.0 0.0 0.00 0.00 0.00 57
20260902095032 78 0 0.0 0.0 0.00 0.00 0.00 57
20260902093034 76 0 0.0 0.0 0.00 0.00 0.00 59
20260902092035 76 0 0.0 0.0 0.00 0.00 0.00 59
20260902091030 76 0 0.0 0.0 0.00 0.00 0.00 59
20260902090034 76 0 0.0 0.0 0.00 0.00 0.00 61
20260902085025 74 0 0.0 0.0 0.00 0.00 0.00 63
20260902083026 74 0 0.0 0.0 0.00 0.00 0.00 63
20260902082028 74 0 0.0 0.0 0.00 0.00 0.00 63
20260902081019 74 0 0.0 0.0 0.00 0.00 0.00 63
20260902080036 74 0 0.0 0.0 0.00 0.00 0.00 64
20260902075034 75 0 0.0 0.0 0.00 0.00 0.00 63
20260902074027 68 0 0.0 0.0 0.00 0.00 0.00 75
20260902073036 68 0 0.0 0.0 0.00 0.00 0.00 75
20260902072022 68 0 0.0 0.0 0.00 0.00 0.00 75
20260902070041 68 0 0.0 0.0 0.00 0.00 0.00 75
20260902065023 68 0 0.0 0.0 0.00 0.00 0.00 75
20260902064020 68 0 0.0 0.0 0.00 0.00 0.00 75
20260902063027 55 0 0.0 0.0 0.00 0.00 0.00 89